Location: Azul
(36.7830°S, 59.8500°W)
Time: 08:02:22
(UTC-03:00)

ISS - Visible Passes

Search period start: 21 October 2019 00:00
Search period end: 31 October 2019 00:00
Orbit: 411 x 421 km, 51.6° (Epoch: 21 October)

Date Brightness Start Highest point End Pass type
(mag) Time Alt. Az. Time Alt. Az. Time Alt. Az.
21 Oct -1.5 20:26:49 10° W 20:29:46 27° SSW 20:32:43 10° SSE visible
22 Oct -0.4 21:17:48 10° SSW 21:18:33 11° SSW 21:19:18 10° S visible
23 Oct -0.7 20:27:48 10° WSW 20:29:41 14° SSW 20:31:34 10° S visible
27 Oct -0.5 22:07:31 10° S 22:07:34 10° S 22:07:34 10° S visible
29 Oct -0.9 22:05:34 10° SSW 22:06:47 15° S 22:06:47 15° S visible
30 Oct -1.1 21:17:26 10° S 21:19:04 13° SSE 21:19:57 12° SE visible
